Weather History for Clovis, NM

Change the Weather History Date:

Thursday, October 18, 2012

  Actual Average Record
Temperature  
Mean Temperature 54 °F -  
Max Temperature 69 °F 69 °F 91 °F (1988)
Min Temperature 39 °F 41 °F 28 °F (1948)
Degree Days  
Heating Degree Days 11    
Growing Degree Days 4 (Base 50)    
Moisture  
Dew Point 25 °F    
Average Humidity 37    
Maximum Humidity 61    
Minimum Humidity 17    
Precipitation  
Precipitation 0.00 in - - ()
Sea Level Pressure  
Sea Level Pressure 30.07 in    
Wind  
Wind Speed 7 mph (SE)    
Max Wind Speed 15 mph    
Max Gust Speed 18 mph    
Visibility 10 miles    
Events      
Averages and records for this station are not official NWS values.
T = Trace of Precipitation, MM = Missing Value Source: NWS Daily Summary

Daily Weather History Graph

Daily Weather History Graph

Search for Another Location

Airport:

Trip Planner

Search our weather history database for the weather conditions in past years. The results will help you decide how hot, cold, wet, or windy it might be!

Date:

Astronomy

Oct. 18, 2012 Rise Set
Actual Time 7:00 AM MDT 6:13 PM MDT
Civil Twilight 6:35 AM MDT 6:38 PM MDT
Nautical Twilight 6:05 AM MDT 7:08 PM MDT
Astronomical Twilight 5:36 AM MDT 7:37 PM MDT
Moon 10:36 AM MDT (10/18) 8:58 PM MDT (10/18)
Length of Visible Light 12h 03m
Length of Day
11h 12m
Waxing Crescent, 15% of the Moon is Illuminated
Oct 18
Waxing Crescent
Oct 21
First Quarter
Oct 29
Full
Nov 6
Last Quarter
Nov 13
New

Hourly Weather History & Observations

Time (MDT) Temp. Windchill Dew Point Humidity Pressure Visibility Wind Dir Wind Speed Gust Speed Precip Events Conditions
12:15 AM 44.6 °F 41.4 °F 28.4 °F 53% 29.99 in 10.0 mi East 5.8 mph - N/A   Clear
12:35 AM 44.6 °F 43.1 °F 28.4 °F 53% 30.00 in 4.0 mi ENE 3.5 mph - N/A   Clear
12:55 AM 44.6 °F 43.1 °F 28.4 °F 53% 30.00 in 10.0 mi East 3.5 mph - N/A   Clear
1:15 AM 42.8 °F 38.6 °F 28.4 °F 57% 30.01 in 2.5 mi East 6.9 mph - N/A   Clear
1:35 AM 42.8 °F 41.1 °F 28.4 °F 57% 30.01 in 4.0 mi East 3.5 mph - N/A   Clear
1:55 AM 42.8 °F 39.3 °F 26.6 °F 53% 30.01 in 10.0 mi East 5.8 mph - N/A   Clear
2:15 AM 42.8 °F 41.1 °F 26.6 °F 53% 30.02 in 10.0 mi NE 3.5 mph - N/A   Clear
2:35 AM 44.6 °F - 28.4 °F 53% 30.02 in 10.0 mi Calm Calm - N/A   Clear
2:55 AM 42.8 °F - 26.6 °F 53% 30.03 in 10.0 mi Calm Calm - N/A   Clear
3:15 AM 42.8 °F - 26.6 °F 53% 30.03 in 10.0 mi Calm Calm - N/A   Clear
3:35 AM 42.8 °F 41.1 °F 26.6 °F 53% 30.03 in 10.0 mi East 3.5 mph - N/A   Clear
3:55 AM 42.8 °F 41.1 °F 26.6 °F 53% 30.02 in 10.0 mi SE 3.5 mph - N/A   Clear
4:15 AM 41.0 °F 36.4 °F 26.6 °F 57% 30.03 in 10.0 mi NE 6.9 mph - N/A   Clear
4:35 AM 39.2 °F 34.2 °F 26.6 °F 61% 30.03 in 10.0 mi ENE 6.9 mph - N/A   Clear
4:55 AM 39.2 °F 34.2 °F 26.6 °F 61% 30.04 in 10.0 mi NE 6.9 mph - N/A   Clear
5:35 AM 39.2 °F 34.2 °F 26.6 °F 61% 30.06 in 10.0 mi ENE 6.9 mph - N/A   Clear
5:55 AM 39.2 °F 35.0 °F 24.8 °F 56% 30.06 in 10.0 mi ENE 5.8 mph - N/A   Clear
6:15 AM 39.2 °F 35.0 °F 24.8 °F 56% 30.07 in 10.0 mi ENE 5.8 mph - N/A   Clear
6:35 AM 39.2 °F 35.0 °F 24.8 °F 56% 30.08 in 10.0 mi East 5.8 mph - N/A   Clear
6:55 AM 39.2 °F 35.0 °F 24.8 °F 56% 30.08 in 10.0 mi ENE 5.8 mph - N/A   Clear
7:15 AM 39.2 °F 35.0 °F 24.8 °F 56% 30.08 in 10.0 mi East 5.8 mph - N/A   Clear
7:35 AM 39.2 °F 35.0 °F 26.6 °F 61% 30.10 in 9.0 mi ENE 5.8 mph - N/A   Clear
7:55 AM 42.8 °F 40.1 °F 26.6 °F 53% 30.10 in 10.0 mi NE 4.6 mph - N/A   Clear
8:15 AM 46.4 °F 44.3 °F 26.6 °F 46% 30.12 in 10.0 mi East 4.6 mph - N/A   Clear
8:35 AM 48.2 °F - 26.6 °F 43% 30.13 in 9.0 mi East 4.6 mph - N/A   Clear
8:55 AM 50.0 °F - 24.8 °F 37% 30.14 in 10.0 mi SE 5.8 mph - N/A   Clear
9:15 AM 53.6 °F - 24.8 °F 33% 30.15 in 10.0 mi ESE 8.1 mph - N/A   Clear
9:35 AM 55.4 °F - 23.0 °F 29% 30.15 in 10.0 mi SE 12.7 mph - N/A   Clear
9:55 AM 55.4 °F - 23.0 °F 29% 30.15 in 10.0 mi SSE 12.7 mph - N/A   Clear
10:15 AM 57.2 °F - 23.0 °F 27% 30.15 in 10.0 mi ESE 12.7 mph - N/A   Clear
10:35 AM 57.2 °F - 23.0 °F 27% 30.14 in 10.0 mi SE 15.0 mph - N/A   Clear
10:55 AM 57.2 °F - 24.8 °F 29% 30.14 in 10.0 mi SE 12.7 mph - N/A   Clear
11:15 AM 59.0 °F - 24.8 °F 27% 30.14 in 10.0 mi SSE 11.5 mph 18.4 mph N/A   Clear
11:35 AM 60.8 °F - 24.8 °F 25% 30.14 in 10.0 mi SE 15.0 mph 18.4 mph N/A   Clear
11:55 AM 60.8 °F - 24.8 °F 25% 30.13 in 10.0 mi SSE 15.0 mph - N/A   Clear
12:15 PM 62.6 °F - 24.8 °F 24% 30.13 in 10.0 mi SSE 11.5 mph 17.3 mph N/A   Clear
12:35 PM 62.6 °F - 24.8 °F 24% 30.12 in 10.0 mi SSE 10.4 mph - N/A   Clear
12:55 PM 64.4 °F - 24.8 °F 22% 30.11 in 10.0 mi South 10.4 mph 17.3 mph N/A   Clear
1:15 PM 64.4 °F - 24.8 °F 22% 30.09 in 10.0 mi South 13.8 mph 17.3 mph N/A   Clear
1:35 PM 64.4 °F - 24.8 °F 22% 30.09 in 10.0 mi South 15.0 mph 18.4 mph N/A   Clear
1:55 PM 66.2 °F - 24.8 °F 21% 30.08 in 10.0 mi South 12.7 mph 16.1 mph N/A   Clear
2:15 PM 66.2 °F - 24.8 °F 21% 30.08 in 10.0 mi South 9.2 mph 18.4 mph N/A   Clear
2:35 PM 66.2 °F - 24.8 °F 21% 30.07 in 10.0 mi SSW 5.8 mph - N/A   Clear
2:55 PM 66.2 °F - 24.8 °F 21% 30.06 in 10.0 mi South 10.4 mph - N/A   Clear
3:15 PM 68.0 °F - 24.8 °F 20% 30.06 in 10.0 mi South 11.5 mph 17.3 mph N/A   Clear
3:35 PM 68.0 °F - 24.8 °F 20% 30.06 in 10.0 mi South 9.2 mph - N/A   Clear
3:55 PM 69.8 °F - 24.8 °F 18% 30.05 in 10.0 mi South 12.7 mph - N/A   Clear
4:15 PM 69.8 °F - 24.8 °F 18% 30.05 in 10.0 mi South 10.4 mph - N/A   Clear
4:35 PM 69.8 °F - 23.0 °F 17% 30.05 in 10.0 mi South 10.4 mph - N/A   Clear
4:55 PM 68.0 °F - 23.0 °F 18% 30.04 in 10.0 mi South 10.4 mph - N/A   Clear
5:15 PM 68.0 °F - 23.0 °F 18% 30.03 in 10.0 mi South 10.4 mph - N/A   Clear
5:35 PM 66.2 °F - 23.0 °F 19% 30.04 in 10.0 mi South 9.2 mph - N/A   Clear
5:55 PM 64.4 °F - 24.8 °F 22% 30.04 in 10.0 mi SSE 6.9 mph - N/A   Clear
6:15 PM 60.8 °F - 23.0 °F 23% 30.04 in 10.0 mi SSE 8.1 mph - N/A   Clear
6:35 PM 57.2 °F - 24.8 °F 29% 30.04 in 7.0 mi SE 8.1 mph - N/A   Clear
6:55 PM 57.2 °F - 24.8 °F 29% 30.05 in 9.0 mi SSE 8.1 mph - N/A   Clear
7:15 PM 55.4 °F - 24.8 °F 31% 30.06 in 10.0 mi SE 8.1 mph - N/A   Clear
7:35 PM 53.6 °F - 24.8 °F 33% 30.06 in 10.0 mi SE 8.1 mph - N/A   Clear
7:55 PM 53.6 °F - 26.6 °F 35% 30.06 in 10.0 mi SSE 8.1 mph - N/A   Clear
8:15 PM 53.6 °F - 26.6 °F 35% 30.07 in 10.0 mi SSE 8.1 mph - N/A   Clear
8:35 PM 51.8 °F - 24.8 °F 35% 30.07 in 10.0 mi SSE 8.1 mph - N/A   Clear
8:55 PM 51.8 °F - 24.8 °F 35% 30.06 in 10.0 mi SSE 6.9 mph - N/A   Clear
9:15 PM 51.8 °F - 26.6 °F 38% 30.07 in 10.0 mi SSE 5.8 mph - N/A   Clear
9:35 PM 51.8 °F - 24.8 °F 35% 30.07 in 10.0 mi SSE 6.9 mph - N/A   Clear
9:55 PM 51.8 °F - 24.8 °F 35% 30.08 in 10.0 mi SSE 5.8 mph - N/A   Clear
10:15 PM 51.8 °F - 24.8 °F 35% 30.09 in 10.0 mi SE 5.8 mph - N/A   Clear
10:35 PM 51.8 °F - 24.8 °F 35% 30.09 in 10.0 mi SE 4.6 mph - N/A   Clear
10:55 PM 51.8 °F - 24.8 °F 35% 30.10 in 10.0 mi SSE 4.6 mph - N/A   Clear
11:15 PM 50.0 °F - 24.8 °F 37% 30.10 in 10.0 mi Calm Calm - N/A   Clear
11:35 PM 46.4 °F 45.2 °F 26.6 °F 46% 30.10 in 10.0 mi ESE 3.5 mph - N/A   Clear
11:55 PM 46.4 °F 45.2 °F 26.6 °F 46% 30.10 in 10.0 mi ESE 3.5 mph - N/A   Clear